Overview Statistics Trail Chart Weather Telemetry Raw packets
 

This is the latest recevied weather packets stored in our database for station/object NR6G-12. If no packets are shown the sender has not sent any weather packets the latest 10 day(s).

<< 73 74 75 76 77 78 79 >>
Time Temp. Humidity Pressure Rain* Wind** Luminosity Snow
1788017055 20° C 63% 1020 hPa 0 mm - - -
1788016692 20° C 63% 1019.8 hPa 0 mm - - -
1788016333 20° C 64% 1019.8 hPa 0 mm - - -
1788015972 20° C 64% 1019.9 hPa 0 mm - - -
1788015612 19.44° C 65% 1019.8 hPa 0 mm - - -
1788015252 19.44° C 65% 1019.8 hPa 0 mm - - -
1788014892 19.44° C 66% 1019.8 hPa 0 mm - - -
1788014534 18.89° C 67% 1019.7 hPa 0 mm - - -
1788014175 18.89° C 68% 1019.6 hPa 0 mm - - -
1788013812 18.33° C 69% 1019.5 hPa 0 mm - - -
1788013452 18.33° C 68% 1019.5 hPa 0 mm - - -
1788013092 18.33° C 69% 1019.4 hPa 0 mm - - -
1788012732 18.33° C 68% 1019.4 hPa 0 mm - - -
1788012372 18.33° C 69% 1019.3 hPa 0 mm - - -
1788012012 18.33° C 69% 1019.2 hPa 0 mm - - -
1788011652 17.78° C 70% 1019.2 hPa 0 mm - - -
1788011292 17.78° C 69% 1019.2 hPa 0 mm - - -
1788010932 17.78° C 69% 1019.2 hPa 0 mm - - -
1788010572 17.78° C 68% 1019.3 hPa 0 mm - - -
1788010215 18.33° C 68% 1019.2 hPa 0 mm - - -
1788009852 18.33° C 68% 1019 hPa 0 mm - - -
1788009492 18.33° C 68% 1019 hPa 0 mm - - -
1788009143 18.33° C 68% 1019 hPa 0 mm - - -
1788008773 18.33° C 67% 1019 hPa 0 mm - - -
1788008412 18.33° C 67% 1018.9 hPa 0 mm - - -

* Rain latest hour (hover to see other rain measurements)
** Current wind speed in m/s (hover to see current wind gust speed)